Mineral Wells, TX

6:55 AM CDT on April 23, 2018 (GMT -0500)
Mineral Wells

Weather History for KMWL - December, 2012

Change the Weather History Date:

Wednesday, December 5, 2012

  Actual Average Record
Temperature  
Mean Temperature 52 °F -  
Max Temperature 68 °F 58 °F 79 °F (2014)
Min Temperature 36 °F 37 °F 23 °F (2013)
Degree Days  
Heating Degree Days 13    
Growing Degree Days 2 (Base 50)    
Moisture  
Dew Point 31 °F    
Average Humidity 48    
Maximum Humidity 86    
Minimum Humidity 25    
Precipitation  
Precipitation 0.00 in - - ()
Sea Level Pressure  
Sea Level Pressure 30.16 in    
Wind  
Wind Speed 4 mph (SE)    
Max Wind Speed 8 mph    
Max Gust Speed -    
Visibility 10 miles    
Events      
Averages and records for this station are not official NWS values.
T = Trace of Precipitation, MM = Missing Value Source: NWS Daily Summary

Daily Weather History Graph

Daily Weather History Graph

Search for Another Location

Airport or City:

Astronomy

Dec. 05, 2012 Rise Set
Actual Time 7:20 AM CST 5:25 PM CST
Civil Twilight 6:53 AM CST 5:52 PM CST
Nautical Twilight 6:22 AM CST 6:23 PM CST
Astronomical Twilight 5:52 AM CST 6:53 PM CST
Moon No Moon Rise 11:59 AM CST (12/5)
Length of Visible Light 10h 59m
Length of Day
10h 05m
Waning Gibbous, 59% of the Moon is Illuminated
Dec 5
Waning Gibbous
Dec 6
Last Quarter
Dec 13
New
Dec 19
First Quarter
Dec 28
Full

Hourly Weather History & Observations

Time (CST) Temp. Windchill Dew Point Humidity Pressure Visibility Wind Dir Wind Speed Gust Speed Precip Events Conditions
12:53 AM 45.0 °F 43.5 °F 24.1 °F 44% 30.26 in 10.0 mi NNE 3.5 mph - N/A   Clear
1:53 AM 39.9 °F 37.8 °F 25.0 °F 55% 30.26 in 10.0 mi West 3.5 mph - N/A   Clear
2:53 AM 43.0 °F 40.3 °F 23.0 °F 45% 30.26 in 10.0 mi NNW 4.6 mph - N/A   Clear
3:53 AM 44.1 °F - 23.0 °F 43% 30.25 in 10.0 mi Calm Calm - N/A   Clear
4:53 AM 39.0 °F 34.8 °F 25.0 °F 57% 30.25 in 10.0 mi WNW 5.8 mph - N/A   Clear
5:53 AM 36.0 °F 33.3 °F 25.0 °F 64% 30.26 in 10.0 mi West 3.5 mph - N/A   Clear
6:53 AM 36.0 °F 33.3 °F 25.0 °F 64% 30.27 in 10.0 mi West 3.5 mph - N/A   Clear
8:53 AM 44.1 °F - 28.0 °F 53% 30.28 in 10.0 mi Calm Calm - N/A   Clear
9:53 AM 53.1 °F - 30.0 °F 41% 30.27 in 10.0 mi Calm Calm - N/A   Clear
10:53 AM 57.0 °F - 33.1 °F 40% 30.25 in 10.0 mi Calm Calm - N/A   Clear
11:53 AM 61.0 °F - 34.0 °F 36% 30.21 in 10.0 mi North 3.5 mph - N/A   Clear
12:53 PM 64.9 °F - 32.0 °F 29% 30.16 in 10.0 mi NNW 4.6 mph - N/A   Clear
1:53 PM 66.0 °F - 32.0 °F 28% 30.13 in 10.0 mi Variable 3.5 mph - N/A   Clear
2:53 PM 68.0 °F - 32.0 °F 26% 30.09 in 10.0 mi SE 4.6 mph - N/A   Clear
3:53 PM 66.9 °F - 30.0 °F 25% 30.07 in 10.0 mi SE 4.6 mph - N/A   Clear
4:53 PM 64.0 °F - 30.0 °F 28% 30.07 in 10.0 mi SE 6.9 mph - N/A   Clear
5:53 PM 57.9 °F - 30.0 °F 35% 30.06 in 10.0 mi ESE 4.6 mph - N/A   Clear
6:53 PM 54.0 °F - 33.1 °F 45% 30.06 in 10.0 mi ESE 5.8 mph - N/A   Clear
7:53 PM 52.0 °F - 35.1 °F 53% 30.06 in 10.0 mi SE 4.6 mph - N/A   Clear
8:53 PM 51.1 °F - 39.0 °F 63% 30.06 in 10.0 mi SE 5.8 mph - N/A   Clear
9:53 PM 50.0 °F - 42.1 °F 74% 30.04 in 10.0 mi SE 5.8 mph - N/A   Clear
10:53 PM 50.0 °F - 43.0 °F 77% 30.02 in 10.0 mi SSE 8.1 mph - N/A   Clear
11:53 PM 46.9 °F - 43.0 °F 86% 30.01 in 10.0 mi SE 8.1 mph - N/A   Clear